#timestamp,LO_Frequency,Hit,StdDev 
1596484815.3,286046999.9,N
1596484835.1,286047000.3,N
1596484855.9,286047000.0,N
1596484875.7,286047000.2,N
1596484895.5,286047000.2,N
1596484915.4,286047000.0,N
1596484935.2,286046999.9,N
1596484955.1,286046999.9,N
1596484956.0,286046999.9,N
1596484975.8,286046999.8,N
1596484995.6,286046999.7,N
1596485015.5,286047000.2,N
1596485035.3,286046999.8,N
1596485055.2,286046999.7,N
1596485075.9,286047000.0,N
1596485095.7,286047002.8,Y
1596485115.6,286047002.6,P
1596485135.4,286047002.7,N
1596485155.2,286047002.7,N
1596485175.1,286047002.3,N
1596485176.0,286047002.3,N
1596485195.8,286047002.1,N
1596485215.7,286047002.1,N
1596485235.5,286047002.4,Y
1596485255.3,286047000.5,P
1596485275.2,286047000.8,N
1596485295.0,286047000.8,N
1596485295.9,286047000.8,N
1596485315.8,286047000.3,N
1596485335.6,286047001.2,N
1596485355.4,286047000.8,N
1596485375.3,286047000.7,N
1596485395.1,286047000.7,N
1596485415.8,286047001.0,N
1596485435.7,286047000.9,N
1596485455.5,286047000.9,N
1596485475.4,286047000.6,N
1596485495.2,286047000.5,N
1596485515.0,286047000.5,N
1596485515.9,286047000.5,N
1596485535.8,286047000.7,N
1596485555.6,286047000.6,N
1596485575.4,286047000.4,N
1596485595.3,286047000.4,N
1596485615.1,286047000.3,N
1596485635.9,286047000.3,N
1596485655.7,286046999.9,N
1596485675.5,286047002.7,Y
1596485695.4,286047000.7,P
1596485715.2,286047000.0,N
1596485735.0,286047000.9,N
1596485736.0,286047000.9,N
1596485755.8,286047000.9,N
1596485775.6,286047000.5,N
1596485795.5,286047000.4,N
1596485815.3,286047000.6,N
1596485835.1,286047000.1,N
1596485855.9,286047000.4,N
1596485875.7,286047000.1,N
1596485895.6,286047000.4,N
1596485915.4,286047000.1,N
1596485935.2,286047000.3,N
1596485955.1,286047000.4,N
1596485956.0,286047000.4,N
1596485975.8,286047000.5,N
1596485995.6,286047000.5,N
1596486015.5,286047000.9,Y
1596486035.3,286047001.2,P
1596486055.2,286047000.8,N
1596486075.9,286047000.9,N
1596486095.7,286047000.4,N
1596486115.6,286047000.7,N
1596486135.4,286047001.1,Y
1596486155.2,286047001.1,P
1596486175.1,286047000.8,P
1596486176.0,286047000.8,P
1596486195.8,286046998.5,Y
1596486215.7,286046998.4,P
1596486235.5,286046998.7,N
1596486255.3,286046998.7,N
1596486275.2,286046998.7,N
1596486295.0,286046999.3,N
1596486295.9,286046999.3,N
1596486315.8,286046998.3,N
1596486335.6,286046998.3,N
1596486355.4,286046998.6,N
1596486375.3,286046998.7,N
1596486395.1,286046998.9,N
1596486415.8,286046998.8,N
1596486435.7,286046998.5,N
1596486455.5,286046998.1,Y
1596486475.4,286047000.8,P
1596486495.2,286047000.7,N
1596486515.0,286047000.5,N
1596486515.9,286047000.5,N
1596486535.8,286047000.3,N
1596486555.6,286046999.8,N
1596486575.4,286047000.4,N
1596486595.3,286047000.5,N
1596486615.1,286047000.4,N
1596486635.9,286046999.9,N
1596486655.7,286047000.0,N
1596486675.5,286046999.9,N
1596486695.4,286047000.2,N
1596486715.2,286047000.2,N
1596486735.0,286046999.9,N
1596486735.9,286046999.9,N
1596486755.8,286046999.9,N
1596486775.6,286046999.7,N
1596486795.5,286047000.0,N
1596486815.3,286047000.2,N
1596486835.1,286047002.3,Y
1596486855.9,286047000.1,P
1596486875.7,286047002.6,P
1596486895.5,286047002.5,N
1596486915.4,286047002.2,N
1596486935.2,286047002.5,N
1596486955.1,286047002.5,N
1596486956.0,286047002.5,N
1596486975.8,286047001.5,N
1596486995.6,286047002.3,N
1596487015.5,286047002.5,N
1596487035.3,286047001.8,N
1596487055.1,286047002.1,N
1596487075.9,286047002.1,N
1596487095.7,286047001.9,N
1596487115.6,286047001.6,N
1596487135.4,286047001.6,N
1596487155.2,286047001.8,N
1596487175.1,286047001.7,N
1596487176.0,286047001.7,N
1596487195.8,286047001.8,N
1596487215.6,286047004.2,Y
1596487235.5,286047002.7,P
1596487255.3,286047002.7,P
1596487275.2,286047002.3,P
1596487295.9,286047002.3,Y
1596487315.7,286047000.8,P
1596487335.6,286046998.3,N
1596487355.4,286046998.5,N
1596487375.3,286046998.1,N
1596487395.1,286046998.3,N
1596487396.0,286046998.3,N
1596487415.8,286046998.4,N
1596487435.7,286047001.2,N
1596487455.5,286047001.1,N
1596487475.3,286047000.8,N
1596487495.2,286046998.3,N
1596487515.0,286046998.5,N
1596487515.9,286046998.5,N
1596487535.8,286046998.6,N
1596487555.6,286046998.5,N
1596487575.4,286047000.9,N
1596487595.3,286047001.0,N
1596487615.1,286047000.5,N
1596487635.8,286047001.2,N
1596487655.7,286047001.0,N
1596487675.5,286047000.8,N
1596487695.4,286047001.1,N
1596487715.2,286046999.9,N
1596487735.0,286047000.9,N
1596487735.9,286047000.9,N
1596487755.8,286046999.8,N
1596487775.6,286047000.7,N
1596487795.4,286047000.0,N
1596487815.3,286047000.2,N
1596487835.1,286046999.8,N
1596487855.9,286047000.2,N
1596487875.7,286047002.8,N
1596487895.5,286047002.7,N
1596487915.4,286047000.0,N
1596487935.2,286047002.7,N
1596487955.0,286047000.0,N
1596487955.9,286047000.0,N
1596487975.8,286046999.7,N
1596487995.6,286047002.8,N
1596488015.5,286047002.7,N
1596488035.3,286047002.7,N
1596488055.1,286047002.4,N
1596488075.9,286047002.5,N
1596488095.7,286047002.5,N
1596488115.6,286047001.8,N
1596488135.4,286047001.3,N
1596488155.2,286047001.4,N
1596488175.1,286047001.4,N
1596488176.0,286047001.4,N
1596488195.8,286047004.4,Y
1596488215.7,286046999.8,P
1596488235.5,286047000.2,N
1596488255.3,286046999.8,N
1596488275.2,286046999.8,N
1596488295.0,286047000.1,N
1596488295.9,286047000.1,N
1596488315.7,286047000.3,N
1596488335.6,286047002.7,Y
1596488355.4,286047002.3,P
1596488375.3,286047002.4,N
1596488395.1,286046999.8,N
